Вернуться в каталог

IUS R/B(2)

АктивенGEO
NORAD 26359·ROCKET BODY·🇺🇸 United States

Запущен May 8, 2000 с Cape Canaveral Space Force Station

Loading…

TLE

СвежийSource: Space-Track

Эпоха: Sep 13, 2026, 15:07 UTC

1 26359U 00024D   26256.63005652 -.00000293  00000-0  00000-0 0  9994
2 26359  13.3936  11.9531 0005672 186.0690 173.9447  0.99714102 26255

Отслеживайте IUS R/B(2) в реальном времени с AllMySat

Download on the App Store